Torna al catalogo

STARLINK-32520

AttivoComunicazioniVLEO
NORAD 62021·PAYLOAD·🇺🇸 United States

Lanciato Nov 18, 2024 da Vandenberg Space Force Base

Loading…

Prossimi Passaggi (prossime 24 ore)

TLE

AggiornatoSource: CelesTrak SupGP

Epoca: Sep 15, 2026, 02:38 UTC

1 62021C 24213P   26258.11020833  .00055650  00000+0  16444-2 0  2583
2 62021  53.1596   6.6716 0001171  88.6610  94.3487 15.34359286    19

Traccia STARLINK-32520 in tempo reale con AllMySat

Download on the App Store